Location: Ash Swamp
(41.5170°N, 74.6157°W)
Time: 02:39:54
(UTC+00:00)

CZ-4 R/B - Pass Details

Date: 14 July 2020
Orbit: 682 x 752 km, 98.5° (Epoch: 14 August)

Event Time Altitude Azimuth Distance (km) Brightness Sun altitude
Rises 05:00:45 0° 18° (NNE) 3,088 8.3 -26.9°
Reaches altitude 10° 05:03:03 10° 23° (NNE) 2,175 7.2 -26.9°
Enters shadow 05:07:11 50° 77° (ENE) 902 4.3 -26.9°
